GFSCGP_con_mucape_162.txt.gz
CAPE
19 0 0 25 43 38 19 6 11 15 6 0 0 2 2 0 0 0 0 0 0 0 0 0 1005 2034 2720 2959 2795 2869 2778 2764 2616 1826 1644 1460 1365 1429 1270 1178 1093 1017 487 254
21 0 22 38 41 52 48 36 22 44 43 20 0 0 0 0 0 0 0 0 0 0 0 0 1684 2374 2726 3055 2971 2923 2695 2740 2139 1703 1531 1206 1207 1380 1270 1019 1049 919 856 1102
0 7 33 17 3 35 51 36 28 64 71 50 8 0 0 0 0 0 0 0 0 0 0 21 1797 2786 3118 3218 3039 2966 2505 2272 2065 2215 1813 1707 1644 1774 1390 1557 1275 1400 1076 822
0 0 0 5 0 42 63 38 34 0 0 51 71 60 0 0 0 0 0 0 0 0 0 140 2307 3147 3211 3298 3177 2844 2489 2750 2246 2242 1921 2071 1208 1246 818 604 464 229 344 396
0 0 0 0 40 30 18 21 28 50 4 0 38 61 0 0 0 0 0 0 0 0 0 69 2506 3255 3248 3215 2900 2825 2765 2491 2086 1869 1915 1773 942 643 578 629 590 394 323 185
0 0 0 5 40 34 22 28 43 55 58 122 42 145 18 4 0 0 0 0 0 0 0 10 2378 3294 3383 3190 3044 2870 2577 2275 2196 2076 2142 1009 545 452 501 480 356 161 180 118
7 15 26 5 44 60 3 90 98 172 131 51 127 108 29 0 0 0 0 0 0 0 0 11 2467 3101 3270 3239 3075 2826 2465 2545 2484 2432 1636 1337 752 635 571 395 139 123 191 107
0 0 0 38 57 0 7 70 172 213 230 124 92 21 1 0 0 0 0 0 0 0 0 118 2425 2944 3159 3044 2891 2144 2595 2503 2148 2067 1931 1520 1280 1283 747 253 83 82 37 0
0 0 0 11 37 19 0 11 23 1 1 110 154 76 6 1 0 0 0 0 0 0 0 803 2429 2876 2946 2865 2448 2247 2415 2285 2002 2137 1975 1818 1927 1041 389 299 58 0 0 0
0 0 0 1 20 11 8 20 240 244 158 218 192 147 58 31 0 0 0 0 0 0 18 1610 2607 2879 2847 2216 2410 2711 2595 2325 1882 2095 2009 1338 1134 852 180 6 0 4 0 0
0 0 0 0 19 64 45 62 197 242 130 232 206 134 141 0 0 0 0 0 0 0 620 2110 2236 2332 2058 2234 2342 2522 2509 1921 1898 1801 1507 1225 812 347 178 7 0 0 1 0
0 0 0 0 23 116 110 150 159 289 218 183 119 0 378 0 2 0 0 0 0 0 1622 1868 2176 1944 1801 1805 1717 1744 1808 1668 1526 1579 1052 578 402 219 29 3 0 0 0 0
0 0 0 43 31 28 87 154 243 225 214 119 0 19 59 14 162 0 0 0 0 965 1631 2049 1917 1694 1691 1428 1398 1411 1316 1258 1191 1146 786 459 319 104 0 1 1 1 16 19
0 0 2 65 176 0 22 56 56 87 6 68 0 0 26 35 232 36 35 55 521 993 1511 1742 1600 1522 1577 1319 1327 1378 1322 1352 1056 831 472 364 192 10 36 3 1 18 5 0
0 0 1 3 57 94 43 61 27 79 0 0 0 115 16 33 262 109 73 1373 826 776 1005 901 1086 1134 1402 1665 1555 1469 1265 1044 753 588 439 417 148 174 136 20 16 0 0 0
0 0 0 4 117 74 57 24 0 5 0 0 12 55 146 241 19 481 1159 695 641 380 495 399 557 1011 1600 1531 1747 1617 1462 797 469 453 488 407 403 152 43 24 0 0 0 0
0 3 0 58 92 48 71 0 0 0 0 0 13 162 315 400 982 868 733 593 162 249 147 440 593 1180 1462 1688 1804 1405 725 611 557 552 446 460 267 67 14 0 0 0 0 0
0 0 42 94 110 17 12 0 0 1 0 10 147 250 291 442 626 604 513 262 261 212 318 606 1135 1552 1323 1048 776 626 512 537 526 554 366 256 156 36 0 0 0 0 0 0
0 0 52 103 165 24 0 0 0 2 57 73 68 155 220 355 297 453 311 136 168 170 620 1097 1427 1126 895 640 412 150 34 61 93 212 203 113 1 0 0 0 0 0 0 0
0 0 11 0 0 0 0 0 0 0 12 105 189 231 393 518 175 253 250 160 362 791 1022 1294 952 743 550 178 41 8 51 77 40 17 0 0 0 0 0 0 0 0 0 0
0 0 0 0 0 0 8 0 0 0 1 108 89 142 328 168 127 295 97 234 671 876 1103 607 649 289 130 41 12 4 0 0 0 0 0 0 0 0 0 0 0 0 0 0
0 0 0 0 0 0 2 0 0 0 0 111 185 180 335 117 332 163 356 559 921 848 435 319 181 53 34 2 0 1 0 0 0 0 0 0 0 0 0 0 0 0 0 0
0 0 0 0 0 0 0 0 0 0 0 63 152 168 188 84 342 451 500 811 867 259 165 58 47 18 0 0 0 0 0 0 0 0 0 0 0 0 0 0 0 0 0 0
0 0 0 0 0 9 3 0 0 0 1 42 173 146 201 124 223 53 624 549 427 111 58 52 39 16 0 0 0 0 0 0 0 0 0 0 0 0 0 0 0 0 0 0
0 0 0 2 8 19 1 4 1 0 4 134 94 138 79 113 374 465 407 411 224 75 26 1 0 0 0 0 0 0 0 0 0 0 0 0 0 0 0 0 0 0 0 0
0 0 1 6 0 16 22 0 2 0 0 39 55 69 16 271 267 399 351 403 162 45 12 0 0 0 0 0 0 0 0 0 0 0 0 0 0 0 0 0 0 0 0 0

GFSCGP_con_mucape_165.txt.gz
CAPE
36 28 30 39 54 54 60 72 104 45 23 48 103 17 24 17 0 0 0 0 0 0 0 0 0 0 564 3469 3164 2920 2922 3001 2953 2675 2613 2225 1840 1603 989 1033 1511 1419 660 302
47 38 32 19 43 40 43 61 83 109 79 73 136 90 94 28 9 1 0 0 0 0 0 0 0 0 1624 3695 3233 3320 3480 3347 3240 2843 2813 1974 1673 1121 1029 1269 1389 1025 711 725
19 18 35 38 53 60 69 81 56 105 133 90 163 168 205 18 4 0 0 0 0 0 0 0 0 97 2774 3297 3268 3477 3714 3729 3675 3030 2846 2633 2164 1936 1164 1516 1116 1194 1215 1368
12 11 9 18 31 40 65 56 68 101 199 187 114 152 195 85 16 0 0 0 0 0 0 0 0 590 3207 3127 3133 3518 3723 3277 3216 3960 2597 2938 1647 1347 1564 1563 1901 1643 1370 1204
1 19 15 22 42 37 44 77 88 131 237 150 137 169 43 216 103 4 0 0 0 0 0 0 0 1380 3135 2856 3270 3222 2932 3274 3169 3464 2980 2412 2212 1036 1101 1054 1185 1031 967 907
11 15 22 21 31 34 34 71 110 136 91 250 171 215 121 208 142 44 0 0 0 0 0 0 0 1911 3342 2912 2875 2815 2682 3316 3179 3545 3653 2504 1180 636 749 1032 957 656 569 292
17 40 34 44 43 31 43 83 13 119 367 173 208 181 91 179 126 65 5 0 0 0 0 0 0 2733 3240 2281 3007 2905 3159 3045 3220 3351 2634 1417 1296 1246 1274 1361 511 441 201 98
0 3 2 7 35 33 49 105 2 0 359 283 244 190 169 266 147 77 6 0 0 0 0 0 0 2798 2396 2650 3069 2614 2831 2711 2948 2836 2002 1637 1621 1440 1274 573 341 99 70 88
0 0 7 0 0 45 15 26 35 100 345 356 276 198 267 183 139 113 12 0 0 0 0 0 0 1864 1840 2963 2856 3009 3072 2943 2688 2310 2517 1884 2560 1610 669 553 598 65 48 10
0 0 0 1 0 45 2 64 177 136 173 229 164 157 150 219 154 52 31 0 0 0 0 0 0 337 1133 2509 2881 3136 2999 2820 2546 2428 1911 2184 1732 1173 781 490 101 99 22 0
0 0 0 0 0 66 100 0 42 235 344 318 213 143 146 232 288 191 16 0 0 0 0 0 745 1326 1389 1794 2480 2527 2376 2513 2148 1704 1443 1151 823 495 300 172 153 22 0 0
0 0 0 0 0 30 54 146 135 449 209 274 208 261 17 43 80 187 70 0 12 0 0 350 1715 815 234 1499 2354 2230 2353 2080 1927 1708 1219 940 807 459 222 116 15 10 0 0
0 0 0 53 105 1 0 36 232 255 356 290 287 197 10 21 53 60 183 0 0 6 25 2249 900 118 1614 2156 2006 2089 1590 1924 1521 1244 1191 822 552 275 238 6 0 0 0 0
0 0 0 71 92 41 45 1 100 114 192 112 0 33 11 47 31 34 104 0 0 1300 1534 1301 1300 793 1737 2024 1722 1724 1504 1672 1492 1479 883 402 226 305 195 25 0 1 3 25
0 0 0 0 0 0 131 118 62 12 0 0 16 1 85 56 92 98 80 26 1728 1410 1469 880 666 1076 1179 1074 1285 1366 1757 1767 1435 855 423 228 336 188 51 4 13 14 38 4
0 0 0 33 42 58 6 0 0 42 42 36 0 76 139 106 48 51 208 1534 1210 796 958 854 752 812 1160 1165 1083 1092 1204 1129 909 501 266 295 277 64 41 26 28 22 0 0
0 0 0 4 28 55 27 0 0 0 0 0 0 4 60 0 439 669 1199 1354 796 944 959 828 852 1018 1113 1100 1181 1024 977 831 623 381 331 321 160 94 79 54 34 0 0 0
0 0 0 74 106 55 0 0 0 0 0 0 1 1 59 139 707 1063 912 639 929 1351 1283 830 883 891 1067 1226 987 893 698 672 531 418 353 238 335 196 94 29 0 0 0 0
0 0 0 22 100 53 0 0 0 0 0 17 38 61 237 224 492 522 510 654 921 1600 995 941 1016 1225 1405 1194 948 757 555 387 326 353 322 265 343 203 82 3 0 0 0 0
0 0 9 0 0 0 0 0 1 0 19 34 40 2 4 330 332 540 515 644 760 797 902 1099 1412 1548 1629 1162 762 627 487 440 444 365 317 307 218 157 6 0 0 0 0 0
0 0 0 0 0 0 0 0 0 0 1 4 38 76 179 239 312 459 307 331 718 925 1038 1359 1310 1051 828 698 529 362 295 241 183 168 158 223 146 0 0 0 0 0 0 0
0 0 0 0 0 0 0 0 0 0 26 45 66 148 255 129 438 304 470 558 668 835 1179 1116 683 601 475 341 259 44 8 0 65 169 84 5 0 0 0 0 0 0 0 0
0 0 0 0 0 0 0 0 0 0 0 0 12 125 132 272 339 195 317 444 872 1065 778 506 516 296 175 93 27 0 0 0 1 0 0 0 0 0 0 0 0 0 0 0
0 0 0 0 0 0 0 0 0 0 155 217 83 149 240 276 321 516 253 859 807 382 262 322 195 153 87 25 0 0 0 0 0 0 0 0 0 0 0 0 0 0 0 0
0 0 0 0 0 1 0 0 0 0 12 111 122 231 206 320 293 387 473 453 689 148 203 167 128 63 34 7 0 0 0 0 0 0 0 0 0 0 0 0 0 0 0 0
0 0 0 2 0 3 1 0 0 0 54 167 193 147 274 412 356 286 617 952 209 217 127 86 37 38 5 0 0 0 0 0 0 0 0 0 0 0 0 0 0 0 0 0

GFSCGP_con_mucape_168.txt.gz
CAPE
10 23 13 17 14 11 23 61 63 44 25 37 17 9 10 34 4 4 0 0 0 0 0 0 0 0 506 3076 2319 1420 163 2442 2362 2468 1822 2145 1950 2287 1639 2177 1994 2010 1863 1162
34 31 31 22 11 24 29 44 67 12 36 73 36 63 25 50 38 13 14 5 1 0 0 0 0 0 474 3563 2702 2193 2595 2463 2279 2504 2140 2278 1502 1850 1524 2040 2200 1913 1983 1744
24 7 22 22 23 43 51 56 67 30 45 42 75 50 147 15 74 40 10 14 0 3 0 0 0 0 4 3495 3314 2329 2123 2348 2267 2399 2332 2549 1607 1924 1669 1933 1796 1768 1581 1388
17 6 14 21 24 27 21 38 37 52 83 46 175 124 55 139 164 198 92 13 0 3 6 0 1 2 178 3339 3451 2979 2846 2596 2528 2382 2507 2302 1424 1358 1764 1372 1769 1927 1781 1435
0 7 14 15 3 14 13 38 36 112 134 95 128 139 49 124 207 213 106 9 7 0 7 0 0 0 1353 3647 3439 3171 2928 2736 2788 2563 2139 2089 1678 2339 1690 1968 1865 1378 891 673
7 6 11 1 2 10 5 26 36 71 134 122 27 122 1 175 215 153 239 101 14 0 0 0 0 0 2783 3606 3551 3336 2881 2433 2219 2119 2382 2447 2021 1599 1813 1450 854 705 695 531
34 4 7 31 21 37 20 39 221 146 231 34 35 119 29 192 212 242 155 59 30 0 0 0 0 4 1844 3193 3288 2966 2498 1704 1410 2261 2778 2059 1733 1609 1619 792 529 746 497 282
50 40 0 1 0 25 24 1 0 10 122 20 34 96 107 288 360 284 92 66 102 0 0 0 0 0 3183 3532 3074 2825 1901 1872 1619 2345 2219 1820 1669 1277 1023 390 777 406 292 204
51 0 8 3 0 0 0 0 5 13 0 255 26 18 174 90 66 208 133 64 73 56 0 0 0 0 2669 3029 2929 2598 1923 2064 2108 2321 2137 1796 1665 978 633 750 318 101 29 32
0 0 0 0 0 0 0 24 187 56 44 83 43 174 166 197 221 66 205 191 95 113 0 0 0 0 2713 3022 2761 2318 2070 2091 2105 2044 1755 1725 1036 689 661 293 142 79 56 0
0 0 0 0 0 0 8 22 59 72 69 157 124 80 64 183 74 10 79 189 150 30 1 0 0 1746 2944 2683 2336 2090 2127 2247 1883 1647 1691 1191 779 681 286 209 127 43 0 0
0 0 0 0 0 0 13 42 47 93 0 165 161 33 127 123 52 2 96 191 163 20 0 0 1107 2218 2114 2186 1715 1692 1773 1904 1326 1461 1360 912 556 549 295 126 3 0 0 0
0 0 0 0 40 46 36 35 57 60 65 267 222 85 246 69 68 26 71 105 114 4 0 715 1879 1529 1488 1300 971 1035 689 1123 1238 1578 1257 685 486 340 200 86 8 0 0 0
0 0 0 0 0 0 0 0 49 70 0 66 94 102 91 102 46 56 21 132 22 16 2078 2097 844 1036 804 131 0 267 883 1300 1422 1297 867 534 409 253 209 102 0 0 0 0
0 0 0 0 0 0 0 0 0 9 0 164 79 24 65 38 118 129 31 76 22 1236 1067 1101 826 404 25 3 129 337 1174 1246 1239 839 633 469 181 228 240 114 0 0 0 5
0 0 0 0 0 2 70 0 0 0 0 0 0 9 45 0 19 79 91 48 193 1046 627 846 556 287 91 1 204 682 1095 1563 755 593 406 144 213 280 220 121 0 24 29 30
0 0 0 0 0 30 3 0 0 0 0 0 0 0 0 0 0 40 134 221 453 971 494 637 214 102 81 86 404 730 1045 970 623 366 135 176 268 227 83 40 21 47 52 0
0 0 0 0 31 0 15 0 0 0 0 0 0 0 0 0 0 63 124 385 658 817 381 311 266 127 164 175 484 581 918 758 356 161 176 259 274 112 79 52 60 42 2 0
0 0 0 0 0 0 0 0 0 2 0 0 16 11 3 49 118 271 827 526 515 296 444 173 17 209 332 139 285 552 752 339 187 203 251 294 227 144 109 61 48 1 0 0
0 0 0 0 0 0 0 0 0 0 0 21 18 3 68 106 440 537 459 420 410 328 140 287 238 218 189 132 495 658 563 330 252 251 273 220 176 174 126 53 0 0 0 0
0 0 0 0 0 0 0 0 0 1 0 3 21 0 0 71 237 164 605 686 342 298 282 344 170 39 15 378 431 450 445 381 260 269 174 178 187 190 97 15 0 0 0 0
0 0 0 0 0 0 0 0 2 0 0 1 4 6 38 214 592 455 619 681 531 584 688 608 78 62 463 564 351 248 190 148 157 110 60 93 133 86 15 0 0 0 0 0
0 0 0 0 0 0 0 0 0 0 5 0 21 29 170 362 627 449 460 468 395 285 235 163 226 426 499 378 219 118 40 40 10 43 64 98 38 0 0 0 0 0 0 0
0 0 0 0 0 1 0 0 0 0 31 14 14 127 245 200 211 134 293 310 232 230 324 219 307 327 307 326 177 48 5 0 10 24 6 0 0 0 0 0 0 0 0 0
0 0 0 0 0 0 0 0 0 0 35 68 102 136 182 287 444 41 296 658 579 566 247 245 162 195 167 92 28 3 0 0 0 0 0 0 0 0 0 0 0 0 0 0
0 0 0 0 0 0 0 0 1 15 38 25 92 156 67 313 417 359 388 372 505 423 240 215 92 49 21 16 12 0 0 0 0 0 0 0 0 0 0 0 0 0 0 0

GFSCGP_con_mucape_171.txt.gz
CAPE
0 0 0 0 0 0 0 0 0 0 0 1 2 0 0 0 0 0 0 0 0 0 0 0 0 0 1915 1291 651 365 504 384 459 1011 1448 1472 1219 1036 1180 851 746 937 574 526
3 6 1 3 5 1 0 0 0 0 0 6 0 0 0 0 0 0 0 0 0 0 0 0 0 0 1783 1342 883 550 475 361 496 969 1287 1662 965 1503 1383 1256 1157 1159 878 418
0 0 0 2 0 0 0 9 7 0 10 3 20 0 0 0 0 0 0 0 0 0 0 0 0 0 1967 1211 788 488 447 655 1041 1281 1474 1660 1345 1520 1603 1520 1295 1201 821 1147
0 0 0 0 0 2 2 13 10 7 13 0 10 0 0 0 1 13 7 5 0 0 0 0 0 0 2146 1527 884 432 360 408 919 1233 1349 1461 1382 1587 1678 1316 1037 823 1083 956
0 0 0 1 0 1 0 0 5 4 0 0 5 37 0 0 0 0 3 21 21 0 0 0 0 0 218 2225 1905 1578 1251 557 555 474 1080 1464 1268 1602 1407 1195 909 840 921 801
0 0 7 1 4 4 0 7 0 0 0 0 0 6 0 0 0 0 0 21 8 17 4 0 0 0 317 2825 2270 1981 1571 1202 1105 567 501 1041 1476 1522 1293 1041 948 960 795 548
4 5 3 8 10 0 5 24 0 0 0 0 0 0 0 0 0 0 0 0 6 32 12 4 0 0 508 2711 2442 2164 2075 1659 1451 1251 1187 1383 1552 1459 1095 974 1036 921 550 273
11 0 1 0 0 0 0 0 0 0 7 0 0 0 0 0 8 20 23 77 76 6 55 11 2 0 165 2414 2457 2372 2241 1810 1505 1174 1181 1302 1338 1181 965 981 804 431 267 446
0 0 0 0 0 0 0 0 11 0 0 4 2 0 0 11 10 27 86 63 30 8 20 10 7 0 0 2097 2182 2272 2122 1650 1395 972 936 948 973 941 932 864 402 380 504 368
0 0 0 0 0 0 0 0 0 5 0 0 0 0 17 75 111 34 54 40 12 5 15 8 24 28 15 1833 2252 2177 1593 1460 1218 997 784 888 892 832 766 876 389 449 275 21
0 0 0 0 0 0 0 4 0 51 110 0 0 0 1 0 28 8 21 15 8 4 14 31 6 69 368 2194 2222 1805 1295 1089 1116 839 786 871 858 761 593 361 297 79 27 0
0 0 0 0 0 0 2 0 0 2 0 0 0 0 0 0 10 0 0 1 0 35 21 1 0 0 1219 2423 2118 1589 1211 982 991 917 916 815 722 579 289 233 114 58 5 0
0 0 0 0 0 3 2 24 0 16 0 0 0 0 2 12 16 0 0 0 0 15 30 35 67 52 1813 2589 1788 1492 1087 1387 1170 733 702 657 334 354 244 168 105 7 0 0
0 0 1 0 0 0 0 0 0 0 0 0 0 0 0 0 9 15 1 0 6 133 961 1530 1347 1445 1796 1502 984 926 970 1110 1063 883 824 450 436 320 165 84 0 0 0 0
0 0 0 0 0 0 0 0 0 0 0 0 0 0 0 1 0 2 26 71 53 270 1685 1507 1307 1396 1172 873 624 440 582 56 717 572 526 573 394 130 37 22 10 0 0 0
12 0 0 0 0 0 0 0 0 0 0 0 0 0 0 0 0 8 0 73 72 172 1203 830 831 1038 979 590 420 241 68 17 14 243 433 408 179 89 94 10 1 0 0 0
0 0 0 0 0 0 0 13 0 0 0 0 0 0 0 0 0 0 5 6 18 102 867 400 640 701 574 246 59 58 27 163 272 467 168 258 147 155 110 21 6 0 3 6
0 0 0 0 0 0 0 0 0 0 0 0 0 0 0 0 0 0 0 0 3 537 779 514 289 338 267 93 22 0 46 6 196 197 294 188 164 156 132 83 25 13 23 4
0 0 0 0 0 0 0 0 0 0 0 0 7 30 7 2 0 0 0 0 37 636 472 501 212 107 92 37 0 0 12 236 219 274 180 213 211 156 90 62 40 36 13 0
0 0 0 0 0 0 0 0 0 0 0 0 1 4 4 8 1 14 0 18 300 468 337 372 242 95 90 37 27 45 68 124 207 203 254 269 146 116 95 70 67 34 0 0
0 0 0 0 0 0 0 0 0 0 0 5 4 11 48 74 124 494 204 245 345 267 295 186 412 148 93 140 51 8 10 164 189 230 264 187 149 144 135 78 17 0 0 0
0 0 0 0 0 0 0 0 0 0 0 0 0 0 116 282 475 328 285 207 154 192 145 103 92 251 63 46 0 76 205 174 178 226 211 176 211 197 128 32 0 0 0 0
0 0 0 0 0 0 0 0 0 0 1 0 0 7 139 289 267 301 200 2 48 140 329 76 2 0 7 17 197 183 153 192 229 215 125 172 210 146 76 1 0 0 0 0
0 0 0 0 0 0 0 0 0 0 0 0 0 3 0 68 146 271 166 134 152 44 1 0 9 11 30 78 237 188 210 210 199 119 60 111 100 12 0 0 0 0 0 0
0 0 0 0 0 0 0 0 0 1 0 0 0 0 41 86 123 166 142 112 35 3 7 7 3 26 73 145 158 151 120 27 6 50 69 7 0 0 0 0 0 0 0 0
0 0 0 0 0 0 0 0 1 0 17 1 30 96 70 98 167 210 97 0 0 5 16 25 103 150 181 143 62 6 11 54 15 0 0 0 0 0 0 0 0 0 0 0